Flagstaff Pulliam Airport
KFLG : now visible

Airfield :











YOU CAN JOIN US ON...

 
LOGIN :

Register | Disclaimer

   EN    FR    IT 

 









Legend :    VFR   Marginal VFR   IFR   Intensive IFR   Very Intensive IFR
Visi :
Ceiling :
>= 8 km
>= 3000ft
5 to 8 km
1000 to 3000 ft
1500m to 5 km
500 to 1000 ft
800 to 1500m
200 to 500 ft
< 800m
< 200 ft
Symbols :   Thunderstorms  Fog  Heavy snow  Heavy precipitations  Wind > 20 kt






- Airport Elevation : 7014 ft
- IATA code : FLG


KFLG - Flagstaff Pulliam

CURRENT METAR :
  • 290057Z 07009KT 10SM CLR 10/M08 A3016 RMK AO2 SLP197 T01001078

EXPIRED METARs :
  • 282357Z 07011KT 10SM CLR 13/M07 A3015 RMK AO2 SLP185 T01281067 10144 20111 51010
  • 282257Z 07011KT 10SM CLR 14/M06 A3014 RMK AO2 SLP179 T01391061

TAF KFLG
Valid from the 29 at 00:00 until the 30 at 00:00 UTC


282320Z 2900/2924 06012G21KT P6SM SKC
FM290100 07005KT P6SM SKC
FM291700 07008G15KT P6SM SCT250
KZAB FIR / North America



MET'MAP, your aeronautical weather chart ! - Copyright ORBIFLY December 2007 - Disclaimer

ORBIFLY MET'MAP TEAM :

Programming & Development : Alexandra Zaïnal
Concept & original design : Baudouin d'Aumeries
Assistance for programming : Marc-Olivier Méhu
Technical & hardware support : Manuel Goepfert

Contact : metmap@orbifly.com




SOURCES & CREDITS :

   NOAA       Earth
Advisory